Weather History for Boise, ID

Change the Weather History Date:

Thursday, August 14, 2014

  Actual Average Record
Temperature  
Mean Temperature 74 °F 76 °F  
Max Temperature 85 °F 91 °F 105 °F (1994)
Min Temperature 63 °F 60 °F 43 °F (1893)
Degree Days  
Heating Degree Days 0 0  
Month to date heating degree days 0 0  
Since 1 June heating degree days 36 72  
Since 1 July heating degree days 0 8  
Cooling Degree Days 9 11  
Month to date cooling degree days 214 163  
Year to date cooling degree days 854 688  
Since 1 June cooling degree days 830 644  
Growing Degree Days 24 (Base 50)    
Moisture  
Dew Point 55 °F    
Average Humidity 57    
Maximum Humidity 90    
Minimum Humidity 23    
Precipitation  
Precipitation T in 0.00 in 0.65 in (1968)
Month to date precipitation 0.06 0.10  
Year to date precipitation 8.51 7.36  
Snow  
Snow 0.00 in 0.00 in 0.00 in (2006)
Month to date snowfall 0.0 0.0  
Since 1 July snowfall 0.0 0.0  
Snow Depth 0.00 in    
Sea Level Pressure  
Sea Level Pressure 29.91 in    
Wind  
Wind Speed 5 mph (WNW)    
Max Wind Speed 12 mph    
Max Gust Speed 22 mph    
Visibility 10 miles    
Events Thunderstorm    
T = Trace of Precipitation, MM = Missing Value Source: NWS Daily Summary

Daily Weather History Graph

Daily Weather History Graph

Search for Another Location

Airport:

Trip Planner

Search our weather history database for the weather conditions in past years. The results will help you decide how hot, cold, wet, or windy it might be!

Date:

Astronomy

Aug. 14, 2014 Rise Set
Actual Time 6:48 AM MDT 8:49 PM MDT
Civil Twilight 6:17 AM MDT 9:20 PM MDT
Nautical Twilight 5:39 AM MDT 9:58 PM MDT
Astronomical Twilight 4:57 AM MDT 10:40 PM MDT
Moon 11:04 PM MDT (8/14) 11:40 AM MDT (8/14)
Length of Visible Light 15h 03m
Length of Day
14h 01m
Waning Gibbous, 78% of the Moon is Illuminated
Aug 14
Waning Gibbous
Aug 17
Last Quarter
Aug 25
New
Sep 2
First Quarter
Sep 8
Full

Hourly Weather History & Observations

Time (MDT) Temp. Heat Index Dew Point Humidity Pressure Visibility Wind Dir Wind Speed Gust Speed Precip Events Conditions
12:27 AM 69.8 °F - 57.2 °F 64% 29.93 in 10.0 mi WSW 13.8 mph - N/A Thunderstorm Mostly Cloudy
12:53 AM 66.9 °F - 57.9 °F 73% 29.86 in 10.0 mi West 5.8 mph - 0.00 in Thunderstorm Mostly Cloudy
1:04 AM 66.2 °F - 57.2 °F 73% 29.95 in 10.0 mi Calm Calm - N/A   Mostly Cloudy
1:45 AM 66.2 °F - 59.0 °F 78% 29.96 in 10.0 mi WNW 5.8 mph - N/A Thunderstorm Overcast
1:53 AM 66.0 °F - 59.0 °F 78% 29.88 in 10.0 mi NW 5.8 mph - N/A Thunderstorm Mostly Cloudy
2:11 AM 66.2 °F - 57.2 °F 73% 29.96 in 10.0 mi North 5.8 mph - N/A   Mostly Cloudy
2:53 AM 64.0 °F - 57.9 °F 80% 29.86 in 10.0 mi Calm Calm - N/A   Clear
3:53 AM 66.0 °F - 57.9 °F 75% 29.86 in 10.0 mi SE 8.1 mph - N/A   Scattered Clouds
4:53 AM 64.0 °F - 59.0 °F 84% 29.89 in 10.0 mi West 5.8 mph - N/A   Mostly Cloudy
5:53 AM 63.0 °F - 57.9 °F 84% 29.91 in 10.0 mi West 3.5 mph - N/A   Overcast
6:53 AM 63.0 °F - 59.0 °F 87% 29.92 in 10.0 mi Calm Calm - N/A   Overcast
7:53 AM 63.0 °F - 59.0 °F 87% 29.93 in 10.0 mi South 4.6 mph - N/A   Overcast
8:53 AM 64.9 °F - 57.9 °F 78% 29.94 in 10.0 mi Calm Calm - N/A   Overcast
9:04 AM 66.2 °F - 59.0 °F 78% 30.01 in 10.0 mi West 6.9 mph - N/A   Overcast
9:53 AM 66.9 °F - 59.0 °F 76% 29.94 in 10.0 mi WNW 5.8 mph - N/A   Mostly Cloudy
10:53 AM 69.1 °F - 59.0 °F 70% 29.94 in 10.0 mi Calm Calm - N/A   Mostly Cloudy
11:53 AM 72.0 °F - 59.0 °F 64% 29.94 in 10.0 mi WSW 5.8 mph - N/A   Partly Cloudy
12:48 PM 75.2 °F - 59.0 °F 57% 30.00 in 10.0 mi NW 9.2 mph - N/A   Mostly Cloudy
12:53 PM 73.9 °F - 59.0 °F 59% 29.93 in 10.0 mi West 9.2 mph - N/A   Mostly Cloudy
1:26 PM 75.2 °F - 59.0 °F 57% 30.00 in 10.0 mi WSW 6.9 mph - N/A   Scattered Clouds
1:53 PM 77.0 °F - 57.9 °F 52% 29.92 in 10.0 mi West 9.2 mph - N/A   Clear
2:53 PM 79.0 °F - 55.9 °F 45% 29.91 in 10.0 mi NW 5.8 mph - N/A   Clear
3:53 PM 82.9 °F 81.9 °F 54.0 °F 37% 29.88 in 10.0 mi Variable 4.6 mph - N/A   Clear
4:53 PM 82.9 °F - 48.9 °F 31% 29.86 in 10.0 mi Variable 4.6 mph - N/A   Clear
5:53 PM 82.9 °F - 46.9 °F 28% 29.85 in 10.0 mi East 5.8 mph - N/A   Clear
6:53 PM 84.0 °F - 43.0 °F 24% 29.83 in 10.0 mi NNE 8.1 mph - N/A   Clear
7:53 PM 82.0 °F - 41.0 °F 23% 29.83 in 10.0 mi NNW 10.4 mph - N/A   Clear
8:53 PM 79.0 °F - 44.1 °F 29% 29.84 in 10.0 mi North 6.9 mph - N/A   Clear
9:53 PM 75.9 °F - 46.9 °F 36% 29.86 in 10.0 mi WNW 9.2 mph - N/A   Clear
10:53 PM 73.9 °F - 48.0 °F 40% 29.87 in 10.0 mi WNW 5.8 mph - N/A   Clear
11:53 PM 73.0 °F - 48.0 °F 41% 29.87 in 10.0 mi West 5.8 mph - N/A   Clear